sat.trackr.live / text

‹ back to catalog

STARLINK-5166

NORAD 54085 · 2022-136AL

PAYLOAD ACTIVE UNKNOWN

§ Identity

Operator
Country
US
Launch date
2022-10-20
Launch site
AFETR
Launch vehicle
Mass (kg)
RCS (m²)

Purposes: comms

External: N2YO · Heavens-Above · Gunter

§ Orbital elements

Epoch: 2026-09-20T22:00:03.000096Z

Period
93.94 min
Inclination
53.1601°
Eccentricity
0.0001359
Mean motion
15.32925709 rev/d
Perigee alt
466.2 km
Apogee alt
468.0 km
Semi-major
6,845.2 km
B*
6.5099e-4
RAAN
175.3800°
Arg perigee
108.8917°
Mean anomaly
142.7997°
Rev number
575

§ Raw data

STARLINK-51661 54085U 22136AL  26263.91670139  .00020681  00000+0  65099-3 0  99992 54085  53.1601 175.3800 0001359 108.8917 142.7997 15.32925709  5755

JSON: /api/v1/satellites/54085 · /tle

For live sub-satellite position, see the globe view (requires WebGL).

§ Visibility from observer

Set your observer location to see the next 7 days of passes ≥ 10°. The values pass through the URL so the page stays shareable.

No JS? Fill the form by hand. The geolocation button needs JavaScript.